GW3170 Weather Reports


Display with metric or nautical units.
time (UTC)temp
F
wind
direction
speed
MPH
gust
MPH
rain 1hr
in
rain 24hr
in
rain mn
in
humidity
%
barometer
mb
20260903170109 81 0 1.0 3.0 0.00 0.19 0.00 74 1013.2
20260903165556 80 0 0.0 6.0 0.00 0.19 0.00 73 1013.3
20260903165055 80 264 0.0 6.0 0.00 0.19 0.00 71 1013.3
20260903164607 80 266 1.0 6.0 0.00 0.19 0.00 72 1013.3
20260903164056 80 0 3.0 6.0 0.00 0.19 0.00 71 1013.4
20260903163556 81 245 2.0 6.0 0.00 0.19 0.00 72 1013.4
20260903163136 81 0 1.0 5.0 0.00 0.19 0.00 74 1013.5
20260903162557 80 0 0.0 3.0 0.00 0.19 0.00 74 1013.7
20260903162056 80 264 1.0 4.0 0.00 0.19 0.00 74 1013.5
20260903161600 80 245 1.0 5.0 0.00 0.19 0.00 75 1013.6
20260903161055 79 252 1.0 5.0 0.00 0.19 0.00 75 1013.6
20260903160554 79 269 2.0 5.0 0.00 0.19 0.00 74 1013.6
20260903160108 79 262 1.0 4.0 0.00 0.19 0.00 76 1013.7
20260903155556 78 307 1.0 4.0 0.00 0.25 0.00 76 1013.8
20260903155056 78 285 1.0 5.0 0.00 0.25 0.00 78 1013.8
20260903154610 78 0 2.0 5.0 0.00 0.25 0.00 78 1013.8
20260903154055 77 261 1.0 5.0 0.00 0.25 0.00 79 1013.9
20260903153559 77 254 2.0 6.0 0.00 0.25 0.00 79 1013.8
20260903153109 77 0 2.0 6.0 0.00 0.25 0.00 79 1013.8
20260903152559 77 295 2.0 5.0 0.00 0.25 0.00 79 1013.9
20260903152058 77 300 1.0 6.0 0.00 0.25 0.00 80 1013.9
20260903151603 76 286 1.0 6.0 0.00 0.25 0.00 80 1014.0
20260903151059 76 286 1.0 5.0 0.00 0.25 0.00 79 1014.0
20260903150557 76 306 0.0 5.0 0.00 0.25 0.00 81 1014.0
20260903150105 76 319 1.0 6.0 0.00 0.25 0.00 83 1014.1
20260903145559 76 238 3.0 6.0 0.00 0.93 0.00 84 1014.1
20260903145057 75 221 3.0 6.0 0.00 0.93 0.00 86 1014.1
20260903144600 75 270 3.0 5.0 0.00 0.93 0.00 86 1014.0
20260903144058 74 245 1.0 4.0 0.00 0.93 0.00 88 1013.9
20260903143556 74 256 1.0 5.0 0.00 0.93 0.00 89 1013.9
20260903143105 73 306 2.0 6.0 0.00 0.93 0.00 90 1014.0
20260903142556 73 283 1.0 6.0 0.00 0.93 0.00 89 1014.1
20260903142057 72 283 2.0 5.0 0.00 0.93 0.00 89 1014.1
20260903141607 72 296 2.0 5.0 0.00 0.93 0.00 90 1014.1
20260903141056 72 241 1.0 4.0 0.00 0.93 0.00 90 1014.0
20260903140556 72 296 1.0 5.0 0.00 0.93 0.00 90 1014.0
20260903140107 72 285 1.0 5.0 0.00 0.93 0.00 90 1014.1
20260903135556 71 235 1.0 4.0 0.00 1.09 0.00 90 1014.1
20260903135056 71 279 2.0 4.0 0.00 1.09 0.00 90 1014.1
20260903134628 71 274 1.0 4.0 0.00 1.09 0.00 91 1014.1
20260903134100 71 231 1.0 4.0 0.00 1.09 0.00 91 1014.1
20260903133557 71 300 1.0 6.0 0.00 1.09 0.00 91 1014.0
20260903133104 71 279 2.0 6.0 0.00 1.09 0.00 91 1014.0
20260903132555 71 302 0.0 4.0 0.00 1.09 0.00 91 1014.1
20260903132056 71 304 2.0 4.0 0.00 1.09 0.00 91 1014.1
20260903131600 71 264 1.0 3.0 0.00 1.09 0.00 92 1014.0
20260903131053 71 259 1.0 3.0 0.00 1.09 0.00 92 1014.0
20260903130555 70 251 0.0 4.0 0.00 1.09 0.00 92 1014.1
20260903130109 70 268 1.0 4.0 0.00 1.09 0.00 92 1014.1
20260903125557 70 231 2.0 4.0 0.00 1.09 0.00 92 1014.1
20260903125056 70 214 1.0 3.0 0.00 1.09 0.00 92 1014.1
20260903124610 70 262 0.0 3.0 0.00 1.09 0.00 92 1014.1
20260903124055 70 242 1.0 3.0 0.00 1.09 0.00 92 1014.1
20260903123556 70 245 0.0 2.0 0.00 1.09 0.00 92 1014.0
20260903123103 69 0 0.0 2.0 0.00 1.09 0.00 92 1013.9
20260903122555 69 0 0.0 2.0 0.00 1.09 0.00 93 1013.9
20260903122056 69 233 0.0 2.0 0.00 1.09 0.00 93 1013.8
20260903121602 69 0 0.0 2.0 0.00 1.09 0.00 93 1013.8
20260903121055 69 231 0.0 2.0 0.00 1.09 0.00 93 1013.9
20260903120559 69 0 0.0 2.0 0.00 1.09 0.00 93 1013.9
20260903120131 69 0 0.0 2.0 0.00 1.09 0.00 93 1013.9
20260903115552 69 0 0.0 1.0 0.00 1.09 0.00 93 1013.9
20260903115057 69 0 0.0 1.0 0.00 1.09 0.00 93 1013.8
20260903114605 69 0 0.0 2.0 0.00 1.09 0.00 93 1013.8
20260903114053 69 0 0.0 2.0 0.00 1.09 0.00 93 1013.8
20260903113553 69 257 0.0 2.0 0.00 1.09 0.00 93 1013.7
20260903113103 69 0 0.0 2.0 0.00 1.09 0.00 93 1013.6
20260903112556 69 0 0.0 0.0 0.00 1.09 0.00 93 1013.5
20260903112054 69 0 0.0 0.0 0.00 1.09 0.00 93 1013.4
20260903111601 69 0 0.0 0.0 0.00 1.09 0.00 93 1013.4
20260903111056 68 0 0.0 1.0 0.00 1.09 0.00 93 1013.4
20260903110555 69 0 0.0 1.0 0.00 1.09 0.00 94 1013.3
20260903110105 68 0 0.0 0.0 0.00 1.09 0.00 94 1013.2
20260903105553 68 0 0.0 0.0 0.00 1.09 0.00 94 1013.0
20260903105053 68 0 0.0 0.0 0.00 1.09 0.00 94 1013.1
20260903104609 68 0 0.0 1.0 0.00 1.09 0.00 94 1013.1
20260903104054 68 0 0.0 2.0 0.00 1.09 0.00 94 1013.1
20260903103555 68 244 0.0 2.0 0.00 1.09 0.00 94 1013.0
20260903103100 68 0 0.0 1.0 0.00 1.09 0.00 94 1012.9
20260903102554 68 0 0.0 1.0 0.00 1.09 0.00 94 1013.0
20260903102053 68 268 0.0 1.0 0.00 1.09 0.00 94 1013.1
20260903101600 68 0 0.0 1.0 0.00 1.09 0.00 94 1012.9
20260903101053 68 0 0.0 0.0 0.00 1.09 0.00 94 1013.0
20260903100554 68 0 0.0 0.0 0.00 1.09 0.00 94 1013.0
20260903100106 68 243 0.0 0.0 0.00 1.09 0.00 94 1012.9
20260903095553 68 0 0.0 0.0 0.00 1.09 0.00 94 1012.9
20260903095054 68 0 0.0 0.0 0.00 1.09 0.00 94 1012.9
20260903094602 68 0 0.0 0.0 0.00 1.09 0.00 94 1012.9
20260903094054 68 0 0.0 0.0 0.00 1.09 0.00 94 1012.9
20260903093554 68 0 0.0 0.0 0.00 1.09 0.00 94 1012.9
20260903093104 68 0 0.0 0.0 0.00 1.09 0.00 94 1013.0
20260903092554 68 0 0.0 0.0 0.00 1.09 0.00 94 1013.0
20260903092054 68 0 0.0 0.0 0.00 1.09 0.00 94 1013.0
20260903091605 68 0 0.0 0.0 0.00 1.09 0.00 94 1013.0
20260903091054 68 0 0.0 1.0 0.00 1.09 0.00 94 1013.1
20260903090554 68 0 0.0 1.0 0.00 1.09 0.00 94 1013.1
20260903085554 68 0 0.0 2.0 0.00 1.09 0.00 94 1013.1
20260903085053 68 0 0.0 2.0 0.00 1.09 0.00 94 1012.9
20260903084603 68 0 0.0 1.0 0.00 1.09 0.00 94 1012.8
20260903084054 68 0 0.0 0.0 0.00 1.09 0.00 94 1012.8
20260903083557 68 0 0.0 0.0 0.00 1.09 0.00 94 1012.7
20260903083106 68 0 0.0 1.0 0.00 1.09 0.00 94 1012.8
20260903082554 68 0 0.0 1.0 0.00 1.09 0.00 94 1013.0
20260903082053 68 0 0.0 1.0 0.00 1.09 0.00 94 1012.8
20260903081602 68 0 0.0 0.0 0.00 1.09 0.00 94 1012.7
20260903081055 68 0 0.0 0.0 0.00 1.09 0.00 94 1012.8
20260903080556 68 0 0.0 0.0 0.00 1.09 0.00 94 1012.8
20260903080105 68 0 0.0 1.0 0.00 1.09 0.00 94 1012.9
20260903075554 68 0 0.0 1.0 0.00 1.09 0.00 94 1012.9
20260903075053 68 0 0.0 1.0 0.00 1.09 0.00 94 1012.9
20260903074632 68 0 0.0 1.0 0.00 1.09 0.00 94 1012.9
20260903074053 68 0 0.0 2.0 0.00 1.09 0.00 94 1012.9
20260903073554 68 0 0.0 2.0 0.00 1.09 0.00 94 1012.9
20260903073116 68 0 0.0 2.0 0.00 1.09 0.00 94 1012.9
20260903072556 68 0 0.0 2.0 0.00 1.09 0.00 94 1013.1
20260903072054 68 0 0.0 0.0 0.00 1.09 0.00 94 1013.1
20260903071605 68 0 0.0 0.0 0.00 1.09 0.00 94 1013.1
20260903071053 68 0 0.0 3.0 0.00 1.09 0.00 94 1013.2
20260903070556 68 0 0.0 4.0 0.00 1.09 0.00 94 1013.2
20260903070115 68 254 0.0 4.0 0.00 1.09 0.00 95 1013.4
20260903065554 68 0 1.0 4.0 0.00 1.09 0.00 95 1013.3
20260903065054 68 229 1.0 2.0 0.00 1.09 0.00 95 1013.3
20260903064603 68 0 0.0 2.0 0.00 1.09 0.00 95 1013.4
20260903064053 68 290 0.0 2.0 0.00 1.09 0.00 95 1013.4
20260903063555 67 250 0.0 2.0 0.00 1.09 0.00 95 1013.2
20260903063110 67 0 0.0 1.0 0.00 1.09 0.00 95 1013.1
20260903062554 67 0 0.0 0.0 0.00 1.09 0.00 95 1013.1
20260903062054 67 0 0.0 0.0 0.00 1.09 0.00 95 1013.1
20260903061610 67 0 0.0 0.0 0.00 1.09 0.00 95 1013.1
20260903061056 67 0 0.0 0.0 0.00 1.09 0.00 94 1013.2
20260903060553 67 0 0.0 0.0 0.00 1.09 0.00 94 1013.1
20260903060103 67 0 0.0 0.0 0.00 1.09 0.00 94 1013.2
20260903055554 67 0 0.0 0.0 0.00 1.09 0.00 94 1013.2
20260903055054 67 0 0.0 0.0 0.00 1.09 0.00 95 1013.1
20260903054606 67 0 0.0 0.0 0.00 1.09 0.00 95 1013.1
20260903054055 67 0 0.0 0.0 0.00 1.09 0.00 94 1013.1
20260903053554 67 0 0.0 0.0 0.00 1.09 0.00 95 1013.0
20260903053100 67 0 0.0 0.0 0.00 1.09 0.00 95 1013.1
20260903052558 67 0 0.0 0.0 0.00 1.09 0.00 94 1013.1
20260903052056 67 0 0.0 0.0 0.00 1.09 0.00 94 1013.2
20260903051604 67 0 0.0 0.0 0.00 1.09 0.00 94 1013.0
20260903051057 67 0 0.0 0.0 0.00 1.09 0.00 94 1013.0
20260903050556 67 0 0.0 0.0 0.00 1.09 0.00 94 1013.1
20260903050106 67 0 0.0 0.0 0.00 1.09 0.00 94 1012.9
20260903045603 67 0 0.0 0.0 0.00 1.09 0.00 94 1012.9
20260903045056 68 0 0.0 0.0 0.00 1.09 0.00 94 1012.8
20260903044602 68 0 0.0 0.0 0.00 1.09 0.00 94 1012.9
20260903044056 68 0 0.0 0.0 0.00 1.09 0.00 94 1012.8
20260903043556 68 0 0.0 0.0 0.00 1.09 0.00 94 1012.8
20260903043101 68 0 0.0 0.0 0.00 1.09 0.00 94 1012.8
20260903042555 68 0 0.0 0.0 0.00 1.09 0.00 94 1012.7
20260903042055 68 0 0.0 0.0 0.00 1.09 0.00 94 1012.7
20260903041613 68 0 0.0 1.0 0.00 1.09 0.00 94 1013.0
20260903041056 68 0 0.0 1.0 0.00 1.09 0.00 94 1013.0
20260903040600 68 0 0.0 2.0 0.00 1.09 0.00 94 1013.1
20260903040105 68 0 0.0 2.0 0.00 1.09 0.00 94 1013.1
20260903035601 68 0 0.0 4.0 0.00 1.09 1.09 94 1013.2
20260903035056 68 233 1.0 4.0 0.00 1.09 1.09 94 1013.3
20260903034602 69 230 0.0 3.0 0.00 1.09 1.09 94 1013.3
20260903034100 68 0 0.0 5.0 0.00 1.09 1.09 94 1013.4
20260903033556 69 233 1.0 5.0 0.00 1.09 1.09 94 1013.4
20260903033106 69 226 2.0 4.0 0.00 1.09 1.09 94 1013.2
20260903032556 69 225 1.0 4.0 0.00 1.09 1.09 94 1013.2
20260903032057 69 214 1.0 4.0 0.00 1.09 1.09 94 1013.1
20260903031611 69 259 2.0 5.0 0.00 1.09 1.09 94 1012.9
20260903031100 69 247 0.0 5.0 0.00 1.09 1.09 94 1013.1
20260903030556 69 282 2.0 5.0 0.00 1.09 1.09 94 1013.0
20260903025555 69 244 4.0 10.0 0.01 1.09 1.09 94 1012.7
20260903025057 69 236 2.0 9.0 0.01 1.09 1.09 94 1012.2
20260903024603 69 224 1.0 9.0 0.01 1.09 1.09 93 1012.2
20260903024056 69 243 2.0 7.0 0.02 1.09 1.09 93 1012.3
20260903023553 69 214 1.0 8.0 0.03 1.09 1.09 93 1012.5
20260903023101 70 202 1.0 8.0 0.06 1.09 1.09 93 1012.4
20260903022553 70 347 1.0 9.0 0.07 1.09 1.09 93 1012.5
20260903022053 71 200 2.0 9.0 0.09 1.09 1.09 93 1012.3
20260903021611 71 83 1.0 9.0 0.11 1.09 1.09 93 1012.2
20260903021053 72 143 0.0 6.0 0.12 1.09 1.09 93 1012.3
20260903020553 72 0 0.0 2.0 0.12 1.09 1.09 93 1012.3
20260903015554 73 0 1.0 4.0 0.13 1.08 1.08 94 1013.5
20260903015059 73 259 0.0 2.0 0.13 1.08 1.08 93 1013.1
20260903014624 73 0 0.0 4.0 0.14 1.08 1.08 93 1012.7
20260903014054 73 0 0.0 5.0 0.14 1.07 1.07 93 1012.9
20260903013557 73 120 0.0 5.0 0.14 1.05 1.05 93 1013.2
20260903013106 73 197 0.0 4.0 0.12 1.03 1.03 93 1013.6
20260903012553 74 0 1.0 2.0 0.11 1.01 1.01 93 1013.8
20260903012054 74 227 0.0 0.0 0.10 1.00 1.00 93 1013.7
20260903011621 74 0 0.0 0.0 0.08 0.98 0.98 93 1013.1
20260903011054 74 0 0.0 0.0 0.07 0.97 0.97 92 1013.2
20260903010554 74 0 0.0 0.0 0.07 0.97 0.97 92 1013.4
20260903010112 74 0 0.0 0.0 0.05 0.95 0.95 92 1013.2
20260903005553 74 0 0.0 0.0 0.05 0.95 0.95 91 1013.4
20260903005053 74 0 0.0 0.0 0.05 0.95 0.95 91 1013.9
20260903004607 74 0 0.0 0.0 0.04 0.94 0.94 91 1014.4
20260903004055 75 0 0.0 0.0 0.03 0.93 0.93 90 1014.3
20260903003554 75 0 0.0 0.0 0.02 0.92 0.92 90 1014.5
20260903003129 75 0 0.0 0.0 0.01 0.91 0.91 89 1014.0
20260903002554 75 0 0.0 0.0 0.00 0.90 0.90 89 1013.7
20260903002057 75 0 0.0 0.0 0.00 0.90 0.90 89 1013.3
20260903001605 75 0 0.0 0.0 0.00 0.90 0.90 89 1013.5
20260903001054 75 0 0.0 0.0 0.00 0.90 0.90 89 1013.6
20260903000557 75 0 0.0 2.0 0.00 0.90 0.90 88 1013.6
20260903000109 75 0 0.0 2.0 0.00 0.90 0.90 88 1013.3
20260902235555 75 0 1.0 2.0 0.00 0.90 0.90 88 1013.5
20260902235054 75 0 0.0 0.0 0.00 0.90 0.90 88 1013.0
20260902234610 76 0 0.0 0.0 0.00 0.90 0.90 88 1013.0
20260902234056 76 0 0.0 0.0 0.00 0.90 0.90 87 1012.8
20260902233558 76 0 0.0 0.0 0.00 0.90 0.90 87 1012.4
20260902233103 76 0 0.0 0.0 0.00 0.90 0.90 87 1012.2
20260902232554 76 0 0.0 2.0 0.00 0.90 0.90 86 1012.4
20260902232058 77 0 0.0 2.0 0.00 0.90 0.90 86 1012.5
20260902231606 77 0 0.0 3.0 0.00 0.90 0.90 86 1012.6
20260902231054 77 0 0.0 3.0 0.00 0.90 0.90 86 1012.8
20260902230553 77 233 0.0 3.0 0.00 0.90 0.90 86 1013.1
20260902230107 77 155 0.0 3.0 0.00 0.90 0.90 86 1013.0
20260902225554 78 0 0.0 1.0 0.00 0.90 0.90 85 1012.8
20260902225057 78 0 0.0 1.0 0.00 0.90 0.90 85 1012.5
20260902224620 78 0 0.0 6.0 0.00 0.90 0.90 84 1012.3
20260902224054 78 0 0.0 6.0 0.00 0.90 0.90 84 1012.2
20260902223554 79 113 0.0 1.0 0.00 0.90 0.90 84 1012.1
20260902223101 79 0 0.0 2.0 0.00 0.90 0.90 83 1012.0
20260902222554 79 0 0.0 3.0 0.00 0.90 0.90 83 1012.2
20260902222053 79 0 0.0 3.0 0.00 0.90 0.90 83 1012.2
20260902221601 79 0 0.0 1.0 0.00 0.90 0.90 83 1012.2
20260902221055 79 0 0.0 5.0 0.00 0.90 0.90 83 1012.2
20260902220554 80 0 0.0 5.0 0.00 0.90 0.90 83 1012.2
20260902220116 80 0 0.0 0.0 0.00 0.90 0.90 83 1012.0
20260902215554 80 0 0.0 0.0 0.00 0.90 0.90 83 1012.0
20260902215053 80 0 0.0 0.0 0.00 0.90 0.90 83 1012.3
20260902214602 80 0 0.0 0.0 0.00 0.90 0.90 82 1012.5
20260902214056 81 0 0.0 0.0 0.00 0.90 0.90 82 1012.8
20260902213554 81 0 0.0 0.0 0.00 0.90 0.90 82 1013.3
20260902213106 82 0 0.0 0.0 0.00 0.90 0.90 82 1013.7
20260902212554 82 0 0.0 0.0 0.00 0.90 0.90 82 1013.9
20260902212054 82 0 0.0 0.0 0.00 0.90 0.90 81 1014.1
20260902211603 82 0 0.0 0.0 0.00 0.90 0.90 81 1014.3
20260902211057 82 0 0.0 0.0 0.00 0.90 0.90 80 1014.3
20260902210555 82 0 0.0 0.0 0.00 0.90 0.90 78 1014.5
20260902210059 82 0 0.0 0.0 0.00 0.90 0.90 78 1014.7
20260902205553 82 0 0.0 3.0 0.00 0.90 0.90 78 1014.8
20260902205054 82 0 0.0 4.0 0.00 0.90 0.90 77 1014.9
20260902204605 83 0 1.0 4.0 0.00 0.90 0.90 77 1014.8
20260902204053 83 298 0.0 4.0 0.00 0.90 0.90 75 1014.7
20260902203554 84 235 0.0 4.0 0.00 0.90 0.90 74 1014.8
20260902203118 85 118 1.0 5.0 0.00 0.90 0.90 72 1014.8
20260902202554 85 0 1.0 5.0 0.00 0.90 0.90 73 1014.6
20260902202054 85 128 1.0 4.0 0.00 0.90 0.90 74 1014.3
20260902201604 85 0 0.0 4.0 0.00 0.90 0.90 73 1014.5
20260902201056 85 231 1.0 5.0 0.00 0.90 0.90 74 1014.5
20260902200554 85 127 0.0 5.0 0.00 0.90 0.90 72 1014.5
20260902200106 85 233 1.0 5.0 0.00 0.90 0.90 71 1014.4
20260902195606 85 107 0.0 4.0 0.00 0.90 0.90 73 1014.4
20260902195057 85 235 0.0 4.0 0.00 0.90 0.90 74 1014.2
20260902194605 84 0 0.0 9.0 0.00 0.90 0.90 74 1014.0
20260902194056 84 210 2.0 9.0 0.00 0.90 0.90 73 1014.1
20260902193559 84 218 4.0 8.0 0.00 0.90 0.90 72 1013.9
20260902193103 85 236 2.0 6.0 0.00 0.90 0.90 73 1014.1
20260902192558 85 103 0.0 6.0 0.00 0.90 0.90 74 1014.2
20260902192053 84 164 3.0 6.0 0.00 0.90 0.90 74 1014.2
20260902191606 84 290 0.0 6.0 0.00 0.90 0.90 72 1014.2
20260902191055 84 0 0.0 6.0 0.00 0.90 0.90 72 1014.1
20260902190555 84 153 1.0 4.0 0.00 0.90 0.90 72 1014.2
20260902190114 85 100 1.0 7.0 0.00 0.90 0.90 73 1014.2
20260902185558 85 217 1.0 8.0 0.00 0.90 0.90 72 1014.5
20260902185057 85 231 0.0 8.0 0.00 0.90 0.90 74 1014.6
20260902184559 85 0 1.0 4.0 0.00 0.90 0.90 74 1014.5
20260902184056 84 96 1.0 5.0 0.00 0.90 0.90 73 1014.5
20260902183554 85 191 1.0 6.0 0.00 0.90 0.90 75 1014.6
20260902183104 84 293 0.0 6.0 0.00 0.90 0.90 76 1014.8
20260902182556 84 289 2.0 10.0 0.00 0.90 0.90 74 1014.9
20260902182056 84 262 2.0 10.0 0.00 0.90 0.90 74 1014.9
20260902181605 84 129 4.0 10.0 0.00 0.90 0.90 74 1015.1
20260902181055 84 124 2.0 7.0 0.00 0.90 0.90 74 1015.2
20260902180554 84 263 0.0 6.0 0.00 0.90 0.90 75 1015.2
20260902175556 83 0 0.0 5.0 0.00 0.90 0.90 76 1015.1
20260902175054 82 224 1.0 5.0 0.00 0.90 0.90 76 1014.9
20260902174605 82 283 0.0 4.0 0.00 0.90 0.90 77 1014.9
20260902174057 82 108 1.0 6.0 0.00 0.90 0.90 78 1015.0
20260902173557 82 215 2.0 6.0 0.00 0.90 0.90 77 1015.1
20260902173109 81 250 1.0 7.0 0.00 0.90 0.90 78 1015.2
20260902172556 81 151 3.0 7.0 0.00 0.90 0.90 80 1015.2
20260902172056 81 302 1.0 7.0 0.00 0.90 0.90 80 1015.1
20260902171606 80 200 1.0 5.0 0.00 0.90 0.90 80 1015.1
20260902171057 79 235 0.0 5.0 0.00 0.90 0.90 81 1015.2
20260902170557 79 0 0.0 2.0 0.00 0.90 0.90 85 1015.2